Regional Weather Roundup
Issued by NWS

Home | Current Version | Previous Version | Graphics & Text | Print | Product List | Glossary Off
Versions: 1 2 3 4 5 6 7 8 9 10 11 12 13 14 15 16 17 18 19 20 21 22 23 24 25 26 27 28 29 30 31 32 33 34 35 36 37 38 39 40 41 42 43 44 45 46 47 48 49 50

000
ASUS43 KMKX 201621
RWRWI

WISCONSIN REGIONAL WEATHER ROUNDUP
NATIONAL WEATHER SERVICE MILWAUKEE/SULLIVAN WI
1000 AM CST TUE FEB 20 2018

NOTE: "FAIR" INDICATES FEW OR NO CLOUDS BELOW 12,000 FEET WITH NO
SIGNIFICANT WEATHER AND/OR OBSTRUCTIONS TO VISIBILITY.

WIZ001-002-006>008-014>016-023>028-201700-
NORTHWEST WISCONSIN

CITY           SKY/WX    TMP DP  RH WIND       PRES   REMARKS
SUPERIOR ARPT  LGT SNOW  12   9  88 NW8       29.94R WCI   1
ASHLAND        LGT SNOW  21  20  96 N13       29.84R FOG     WCI   9
HAYWARD        CLOUDY    21  17  84 N6        29.81R WCI  13
SIREN          CLOUDY    20  17  91 NW12      29.88R FOG     WCI   8
CUMBERLAND     CLOUDY    19  18  93 NW3       29.84R FOG
RICE LAKE      CLOUDY    21  19  92 CALM      29.86R FOG
CHETEK         CLOUDY    21  19  93 W3        29.84R FOG
LADYSMITH      CLOUDY    21  19  93 W5        29.81F FOG     WCI  15
EAU CLAIRE     CLOUDY    22  18  85 W6        29.83R WCI  14
MENOMONIE      CLOUDY    23  20  90 W7        29.86R FOG     WCI  14
NEW RICHMOND   CLOUDY    21  17  87 NW7       29.88R FOG     WCI  12
OSCEOLA        CLOUDY    20  19  93 NW7       29.91S FOG     WCI  11
$$

WIZ003>005-009-010-017-018-201700-
NORTH CENTRAL WISCONSIN

CITY           SKY/WX    TMP DP  RH WIND       PRES   REMARKS
MANITOWISH WTR CLOUDY    19  19 100 CALM      29.75R FOG
ARBOR VITAE    CLOUDY    23  21  93 CALM      29.76R FOG
WOODRUFF       CLOUDY    23  21  93 CALM      29.76R FOG
RHINELANDER    CLOUDY    26  25  96 W5        29.74F FOG     WCI  20
EAGLE RIVER    MIX PCPN  24  24 100 CALM      29.74R
LAND O LAKES   CLOUDY    24  23  96 CALM      29.76R FOG
PHILLIPS       CLOUDY    20  20 100 CALM      29.75F FOG
TOMAHAWK       CLOUDY    24  23  94 CALM      29.77R FOG
MEDFORD        FOG       27  26  99 SW5       29.76S VSB 1/4 WCI  21
MERRILL        CLOUDY    29  29 100 CALM      29.76F FOG
$$

WIZ029-030-035-036-043>047-201700-
CENTRAL WISCONSIN

CITY           SKY/WX    TMP DP  RH WIND       PRES   REMARKS
WAUSAU         CLOUDY    30  29  96 SW5       29.75R FOG     WCI  25
MOSINEE        CLOUDY   N/A N/A N/A SW5       29.78R FOG
MARSHFIELD     CLOUDY    30  29  96 W7        29.77R WCI  23
STEVENS POINT  CLOUDY    30  30 100 SW3       29.78F
WAUPACA        CLOUDY    34  32  93 CALM      29.81R FOG
WAUTOMA        CLOUDY    32  31  96 S3        29.80S
WISC RAPIDS    CLOUDY    32  29  88 SW8       29.80R WCI  25
CAMP DOUGLAS   CLOUDY    32  32 100 CALM      29.81R
$$

WIZ011>013-019>022-031-037>040-048>050-201700-
NORTHEAST WISCONSIN

CITY           SKY/WX    TMP DP  RH WIND       PRES   REMARKS
ANTIGO         CLOUDY    28  28 100 SW3       29.75R FOG
SHAWANO        CLOUDY    33  31  93 CALM      29.78S
OCONTO         CLOUDY    31  29  95 CALM      29.78F
STURGEON BAY   CLOUDY    31  31 100 W5        29.80S WCI  26
GREEN BAY      CLOUDY    32  30  92 CALM      29.79S
MANITOWOC      LGT RAIN  36  36 100 S6        29.78F WCI  31
APPLETON       CLOUDY    32  32 100 CALM      29.77F FOG
CLINTONVILLE   CLOUDY    32  31  95 CALM      29.79R
OSHKOSH        PTSUNNY   32  32 100 CALM      29.80R
$$

WIZ032>034-041-042-053>061-201700-
SOUTHWEST WISCONSIN

CITY           SKY/WX    TMP DP  RH WIND       PRES   REMARKS
LA CROSSE      FRZ RAIN  30  29  96 NW14      29.85R FOG     WCI  19
SPARTA         CLOUDY    31  31  99 W3        29.83R
VIROQUA        CLOUDY    32  32 100 SW7       29.81R WCI  26
BOSCOBEL       CLOUDY    36  34  92 SW7G17    29.85R WCI  30
PRAIRIE DU CHI LGT RAIN  34  33  96 SW8       29.88R WCI  27
PLATTEVILLE    CLOUDY    34  34 100 SW9       29.87R WCI  27
$$

WIZ056-057-062-063-064-067-068-201700-
SOUTH CENTRAL WISCONSIN

CITY           SKY/WX    TMP DP  RH WIND       PRES   REMARKS
REEDSBURG      LGT RAIN  33  33 100 SW5       29.81R WCI  29
BARABOO/DELLS  LGT RAIN  33  32  99 CALM      29.80R
LONE ROCK      LGT RAIN  34  34 100 W5        29.87R VSB 1   WCI  30
MINERAL POINT  CLOUDY    36  36 100 SW6       29.82S WCI  31
MADISON        CLOUDY    37  36  96 CALM      29.82S
MIDDLETON      CLOUDY    38  38 100 CALM      29.82S
WATERTOWN      CLOUDY    38  38 100 S3        29.81S
MONROE         CLOUDY    36  36 100 SW5       29.81R FOG     WCI  32
JANESVILLE     CLOUDY    41  41 100 CALM      29.82F FOG
$$

WIZ051-052-058>065-066-070>072-201700-
SOUTHEAST WISCONSIN

CITY           SKY/WX    TMP DP  RH WIND       PRES   REMARKS
MILWAUKEE      FOG       42  42 100 SE5       29.83F VSB 1
WAUKESHA       CLOUDY    41  41 100 S3        29.83F
MILWAUKEE/TIMM CLOUDY    43  39  87 S7        29.84R
RACINE         LGT RAIN  41  40  96 SE3       29.86F FOG
BURLINGTON     FOG       41  40  97 CALM      29.83F VSB 1/2
KENOSHA        CLOUDY    51  49  92 CALM      29.83F FOG
FOND DU LAC    FLURRIES  35  33  92 W3        29.79R
SHEBOYGAN      CLOUDY    38  38 100 S9        29.81F WCI  31
WEST BEND      CLOUDY    41  41 100 S3        29.82R
JUNEAU         CLOUDY    37  37  98 S12       29.82R WCI  30
$$

LSZ147-162-201700-
LAKE SUPERIOR

STATION/POSITION TIME  TEMP    WIND        PRES    WAVE
                       AIR SEA DIR/SP/G            HT/PER
                 (UTC) (F)     (DEG/KT/KT) (MB)    (FT/S)
DEVILS ISLAND    1600   18      40/ 17/ 20 1012.2F
SAXON HARBOR     1520   22      40/  1/ 11 1009.5F
$$

LMZ867-665-643>646-201700-
LAKE MICHIGAN

STATION/POSITION TIME  TEMP    WIND        PRES    WAVE
                       AIR SEA DIR/SP/G            HT/PER
                 (UTC) (F)     (DEG/KT/KT) (MB)    (FT/S)
NORTHPORT PIER   1601   32                 1008.5
KEWAUNEE LAKESHO 1600   34     270/  4/  5 1008.3
SHEBOYGAN LAKESH 1600   35     180/ 12/ 13 1009.9F
PORT WASHINGTON  1540   38     200/  5/  7 1011.5S
MILWAUKEE LAKESH 1600   35     160/  6/  6   N/A
KENOSHA   LAKESH 1600   39      CALM  /  1 1010.8
$$

TC  - TEMPERATURE IN CELSIUS
VSB - VISIBILITY IN STATUTE MILES
WCI - WIND CHILL INDEX
HX  - HEAT INDEX




USA.gov is the U.S. government's official web portal to all federal, state and local government web resources and services.